Regional Weather Roundup
Issued by NWS Kansas City/Pleasant Hill, MO

Home | Current Version | Previous Version | Text Only | Print | Product List | Glossary On
Versions: 1 2 3 4 5 6 7 8 9 10 11 12 13 14 15 16 17 18 19 20 21 22 23 24 25 26 27 28 29 30 31 32 33 34 35 36 37 38 39 40 41 42 43 44 45 46 47 48 49 50
000
ASUS43 KEAX 231511
RWREAX

WEATHER ROUNDUP FOR EASTERN KANSAS AND NORTHWEST MISSOURI
NATIONAL WEATHER SERVICE KANSAS CITY/PLEASANT HILL MO
1000 AM CDT WED JUL 23 2014

KSZ040-057-103>105-MOZ028-029-037-043-231600-
...KANSAS CITY METROPOLITAN AREA...

CITY           SKY/WX    TMP DP  RH WIND       PRES   REMARKS
K.C. INTL      MOSUNNY   78  67  68 NE10      30.15F
K.C. DOWNTOWN  SUNNY     82  66  58 NE7       30.12F
LEES SUMMIT    SUNNY     79  67  66 NE10      30.14F
OLATHE - IXD   SUNNY     82  66  58 NE12      30.14F
OLATHE - OJC   SUNNY     80  67  64 NE9       30.14S
LAWRENCE       SUNNY     79  68  69 NE7       30.15R

$$

MOZ001>008-011>017-020>025-030>033-038>040-044>046-053-054-231600-
...NORTHERN AND CENTRAL MISSOURI...

CITY           SKY/WX    TMP DP  RH WIND       PRES   REMARKS
ST. JOSEPH     SUNNY     78  67  68 NE9       30.16F
MOSBY          SUNNY     79  64  61 NE7       30.13F
WARRENSBURG    SUNNY     79  68  69 N8        30.12S
WHITEMAN AFB   SUNNY     80  61  53 NE9       30.12S
CLINTON        MOSUNNY   81  72  74 NE10      30.11F
SEDALIA        SUNNY     82  70  66 N12       30.13S
WARSAW         NOT AVBL
MARSHALL       SUNNY     81  72  74 NE7       30.14S
CHILLICOTHE      N/A     79  66  64 NE10      30.15F
MOBERLY        SUNNY     79  66  65 NE10      30.14S
KIRKSVILLE     SUNNY     77  67  71 NE8       30.16R

$$

MOZ041-047>049-056>058-063>065-088>090-097-231600-
...EASTERN AND SOUTHERN MISSOURI...

CITY           SKY/WX    TMP DP  RH WIND       PRES   REMARKS
ST. LOUIS INTL PTSUNNY   82  74  76 NW10      30.06S
SPIRIT OF STL  PTSUNNY   82  73  74 VRB7      30.05F
COLUMBIA       SUNNY     82  71  69 N8        30.11S
JEFFERSON CITY SUNNY     83  71  67 N7        30.09R
MEXICO         SUNNY     81  73  78 NE8       30.11R
HANNIBAL       CLOUDY    79  68  69 NE9       30.13R
ROLLA          CLOUDY    82  74  76 N9        30.09R
LEBANON        CLOUDY    79  77  94 CALM      30.11R FOG
OSAGE BEACH    MOSUNNY   82  72  69 N7        30.10R
SPRINGFIELD    CLOUDY    82  76  81 NW6       30.09F HAZE
BRANSON        SUNNY     86  75  70 NW6       30.11F HX  95
NEVADA         PTSUNNY   81  73  78 N8        30.12R
JOPLIN         PTSUNNY   85  77  77 VRB6      30.09F HX  95
WEST PLAINS    SUNNY     84  75  74 NW6       30.08F HX  92
MALDEN         MOSUNNY   86  72  62 S10       30.04S HX  92

$$

IAZ060-094-KSZ022-034>040-054-083-096-NEZ052-066-093-231600-
...KANSAS...SOUTHEAST NEBRASKA AND IOWA...

CITY           SKY/WX    TMP DP  RH WIND       PRES   REMARKS
TOPEKA         MOSUNNY   82  67  60 N8        30.17R
MANHATTAN      CLOUDY    75  63  66 E5        30.20F
EMPORIA        LGT RAIN  71  66  84 NW14G23   30.21R
CHANUTE        MOSUNNY   84  73  69 E8        30.11F HX  90
WICHITA        CLOUDY    81  74  79 N18       30.17R
OMAHA          MOSUNNY   74  60  61 N7        30.24S
LINCOLN        SUNNY     76  58  53 N8        30.27S
FALLS CITY     SUNNY     76  64  66 N6        30.20R
LAMONI         SUNNY     76  66  71 NE9       30.19R
DES MOINES     PTSUNNY   77  63  61 NE6       30.20S

$$




USA.gov is the U.S. government's official web portal to all federal, state and local government web resources and services.